Regional Weather Roundup
Issued by NWS Northern Indiana

Home | Current Version | Previous Version | Graphics & Text | Print | Product List | Glossary On
Versions: 1 2 3 4 5 6 7 8 9 10 11 12 13 14 15 16 17 18 19 20 21 22 23 24 25 26 27 28 29 30 31 32 33 34 35 36 37 38 39 40 41 42 43 44 45 46 47 48 49 50
000
ASUS43 KIWX 251010
RWRIWX

KIWX WEATHER ROUNDUP
NATIONAL WEATHER SERVICE NORTHERN INDIANA
500 AM EST SUN JAN 25 2015

NOTE: "FAIR" INDICATES FEW OR NO CLOUDS BELOW 12,000 FEET WITH NO
SIGNIFICANT WEATHER AND/OR OBSTRUCTIONS TO VISIBILITY.

* THESE STATIONS ARE NOT UNDER NWS QUALITY CONTROL. THEY ALSO MAY NOT
  REPORT WEATHER SUCH AS PRECIPITATION OR FOG.

INZ001>027-251100-
NORTHERN INDIANA

CITY           SKY/WX    TMP DP  RH WIND       PRES   REMARKS
VALPARAISO     FOG       33  32  96 E5        29.67S VSB 3/4 WCI  29
MICHIGAN CITY* CLOUDY    32  32 100 NE3       29.69S FOG
LAPORTE*       CLOUDY    35  35 100 NE3       29.68S FOG
KNOX*          CLOUDY    32  28  84 E3        29.66F
SOUTH BEND     CLOUDY    35  32  88 NE5       29.69S FOG     WCI  31
GOSHEN         CLOUDY    34  33  96 N5        29.68S FOG     WCI  30
MONTICELLO*    MOCLDY    32  32  99 SE3       29.66S FOG
LOGANSPORT*    CLOUDY    32  32 100 E6        29.68S FOG     WCI  26
ROCHESTER*     CLOUDY    34  34 100 E3        29.68S FOG
WARSAW*        CLOUDY    32  32 100 CALM      29.68S FOG
ANGOLA*        CLOUDY    34  25  69 CALM      29.68S
FORT WAYNE     CLOUDY    33  31  92 S3        29.70S
HUNTINGTON*    CLOUDY    32  28  86 S3        29.69S
PERU/GRISSOM   CLOUDY    32  31  95 E6        29.66F WCI  26
MARION*        CLOUDY    32  31  96 SE3       29.69S

$$
INZ028>050-251100-
CENTRAL INDIANA

CITY           SKY/WX    TMP DP  RH WIND       PRES   REMARKS
LAFAYETTE      MOCLDY    31  30  96 NE3       29.66S
KOKOMO*        CLOUDY    32  30  93 E5        29.68S WCI  27
MUNCIE*        CLOUDY    35  30  82 S6        29.68F WCI  30
INDIANAPOLIS   CLOUDY    32  29  88 SE5       29.67F WCI  27

$$
MIZ043>046-050>051-056>058-064>065-071>073-077>080-251100-
SOUTHWEST LOWER MICHIGAN

CITY           SKY/WX    TMP DP  RH WIND       PRES   REMARKS
BATTLE CREEK   CLOUDY    36  31  82 NE9       29.71S HAZE
BENTON HARBOR  CLOUDY    33  32  96 CALM      29.70R FOG
COLDWATER*     CLOUDY    33  32  97 MISG      29.69S FOG
HILLSDALE*     CLOUDY    34  34  99 CALM      29.68F FOG
HOLLAND        CLOUDY    34  28  79 NE9       29.74R WCI  27
GRAND RAPIDS   CLOUDY    31  25  78 NE9       29.74R WCI  23
KALAMAZOO      CLOUDY    35  31  85 NE3       29.70S
STURGIS*       CLOUDY    34  32  93 CALM      29.68S FOG
THREE RIVERS*  CLOUDY    33  32  96 CALM      29.70S FOG

$$
OHZ001>008-015>018-024>025-251100-
NORTHWEST OHIO

CITY           SKY/WX    TMP DP  RH WIND       PRES   REMARKS
WAUSEON*       CLOUDY    34  34 100 CALM      29.70F FOG
DEFIANCE       CLOUDY    36  33  89 CALM      29.71S
FINDLAY        CLOUDY    36  31  82 CALM      29.70F
TOLEDO EXPRESS CLOUDY    34  32  92 CALM      29.71S
TOLEDO METCALF CLOUDY    35  31  85 CALM      29.73R
LIMA           CLOUDY    36  30  79 S8        29.70S

$$
AND FOR LAKE MICHIGAN COASTAL AND OPEN LAKE BUOY OBSERVATIONS

STATION/POSITION TEMP    WIND        PRES    VSBY  WAVE
                 AIR SEA DIR/SP/G                  HT/PER
                 (F)     (DEG/KT/KT) (MB)    (MI)  (FT/S)
CALUMET HARBOR    33      30/  8/ 10   N/A
MICHIGAN CITY     33      30/  9/ 10   N/A
SAINT JOSEPH      34      10/  2/  4 1006.8R

$$
&&



USA.gov is the U.S. government's official web portal to all federal, state and local government web resources and services.